Flag for U.S.A. Weather past 2 weeks in Everett, Washington, U.S.A.

Now
71 °F

Sunny.


Feels Like: 77 °F
Forecast: 58 / 87 °F
Wind: 5 mph from North

Location: Snohomish County Airport

Current Time: Jul 1, 2015 at 10:31:34 PM

Latest Report: Jul 1, 2015 at 9:53 PM


Visibility: 10 mi

Pressure: 29.98 "Hg

Humidity: 51%

Dew point: 52 °F

Location of EverettLocation

Historic Weather in Everett — Graph

°F

Everett temperature yesterday

Maximum temperature yesterday: 79 °F (at 2:53 PM)
Minimum temperature yesterday: 60 °F (at 4:53 AM)
Average temperature yesterday: 68 °F

Past Weeks' High & Low Weather Summary

 TemperatureHumidityPressure
High85 °F (Jun 27, 4:53 PM)93% (Jun 18, 10:53 PM)30.17 "Hg (Jun 18, 10:53 PM)
Low51 °F (Jun 20, 4:53 AM)24% (Jun 21, 5:53 PM)29.91 "Hg (Jun 21, 10:53 AM)
Average65 °F62%30.05 "Hg
* Reported Jun 16 8:53 PM — Jul 1 8:53 PM, Everett, Weather by CustomWeather, © 2015

Note: Actual official high and low records may vary slightly from our data, if they occured in-between our weather recording intervals... More about our weather records

Advertising

Everett weather history for previous 24 hours

 ConditionsComfort  
Time TempWeatherWind HumidityBarometerVisibility
8:53 PM
Wed, Jul 1
73 °FSunny.7 mph53%29.97 "Hg10 mi
7:53 PM80 °FSunny.5 mph42%29.97 "Hg10 mi
6:53 PM81 °FSunny.9 mph41%29.97 "Hg10 mi
5:53 PM82 °FSunny.9 mph41%29.97 "Hg10 mi
4:53 PM81 °FSunny.7 mph44%29.98 "Hg10 mi
3:53 PM82 °FSunny.8 mph41%30.00 "Hg10 mi
2:53 PM80 °FSunny.8 mph42%30.00 "Hg10 mi
1:53 PM77 °FSunny.9 mph48%30.02 "Hg10 mi
12:53 PM76 °FSunny.10 mph48%30.03 "Hg10 mi
11:53 AM73 °FSunny.6 mph55%30.05 "Hg10 mi
10:53 AM71 °FSunny.8 mph59%30.06 "Hg10 mi
9:53 AM69 °FSunny.5 mph63%30.06 "Hg10 mi
8:53 AM66 °FSunny.9 mph70%30.06 "Hg10 mi
7:53 AM64 °FSunny.7 mph73%30.07 "Hg10 mi
6:53 AM62 °FSunny.6 mph75%30.06 "Hg10 mi
5:53 AM61 °FClear.6 mph75%30.06 "Hg10 mi
4:53 AM62 °FClear.7 mph70%30.05 "Hg10 mi
3:53 AM61 °FPassing clouds.6 mph75%30.06 "Hg10 mi
2:53 AM61 °FPassing clouds.5 mph75%30.06 "Hg10 mi
1:53 AM61 °FClear.6 mph78%30.06 "Hg10 mi
12:53 AM60 °FPassing clouds.5 mph75%30.07 "Hg10 mi
11:53 PM
Tue, Jun 30
60 °FClear.6 mph78%30.08 "Hg10 mi
10:53 PM63 °FClear.7 mph63%30.07 "Hg10 mi
Weather by CustomWeather, © 2015

See weather overviewHow to use our weather pages